If you wish to contribute or participate in the discussions about articles you are invited to join SKYbrary as a registered user

 Actions

Aruba/Queen Beatrix International Airport

From SKYbrary Wiki

TNCA
Airport
ICAO: TNCA
Summary
Name Aruba/Queen Beatrix International Airport
Region South America and Caribbean
Territory Aruba AW.gif
Location Oranjestad, Aruba
Serving
Coordinates 12° 30' 5.00" N, 70° 0' 55.00" W
Runways
Designator Length Width Surface ROPS
11/29 2743 m8,999.344 ft
45 m147.638 ft
ASP yes/yes


METAR
Observation TNCA 161400Z 09019KT 9999 SCT020 28/23 Q1016 NOSIG
Station Queen Beatrix Airport
Date/Time 16 April 2019 14:00:00
Wind direction 90°
Wind speed 19 kts
Lowest cloud amount scattered clouds
Temperature 28°C
Dew point 23°C
Humidity 74%
QNH 1016 hPa
Weather condition n/a

WX
Tag(s) Tropical Revolving Storm

Aruba/Queen Beatrix International Airport

ICAO: TNCA IATA: AUA

Description

International airport serving the island of Aruba in the Lesser Antilles, Caribbean. (Netherlands)

Climatology

Tropical Savanna climate (Köppen climate classification Aw), rarely affected directly by tropical storms as it is on the southern fringe of the Atlantic/Caribbean Hurricane Belt.

Maps

Terrain

Loading map...

Airport Layout

Loading map...


Accidents & Serious Incidents at or in vicinity of TNCA

None on SKYbrary